Tracking 21094 objects as of 12-Aug-2020
HD Live streaming from Space Station
objects crossing your sky now
Track the most recent launched group of Starlink satellites

ARIANE 2 DEB

Track ARIANE 2 DEB now!


NORAD ID: 33568
Int'l Code: 1989-006BL
Perigee: 439.4 km
Apogee: 35,404.5 km
Inclination: 8.1 °
Period: 628.0 minutes
Semi major axis: 24292 km
RCS: 0.1575 m2 (medium)
Launch date: January 27, 1989
Source: France (FR)
Launch site: FRENCH GUIANA (FRGUI)

Note: This is SATELLITE DEBRIS
aabbcc
Your satellite tracking list
Your tracking list is empty




NASA's NSSDC Master Catalog

Two Line Element Set (TLE):
1 33568U 89006BL  20224.96737971 -.00000166  00000-0  14398-3 0  9999
2 33568   8.1441 102.1372 7196538  54.0432 352.9937  2.29288648117992
Source of the keplerian elements: AFSPC